Terminal Aerodrome Forecast
Issued by NWS Knoxville/Tri Cities, TN

Home | Current Version | Previous Version | Text Only | Print | Product List | Glossary On
Versions: 1 2 3 4 5 6 7 8 9 10 11 12 13 14 15 16 17 18 19 20 21 22 23 24 25 26 27 28 29 30 31 32 33 34 35 36 37 38 39 40 41 42 43 44 45 46 47 48 49 50
000
FTUS44 KMRX 080711 AAC
TAFTRI
TAF AMD
KTRI 080711Z 0807/0906 20006KT P6SM VCSH BKN045 BKN070
      TEMPO 0808/0810 3SM SHRA SCT008 BKN035
     FM081000 00000KT 4SM BR BKN035
     FM081400 24008KT P6SM BKN050
     FM082000 25010KT P6SM VCTS BKN050CB=

USA.gov is the U.S. government's official web portal to all federal, state and local government web resources and services.